Weather History for Stampede Pass, WA

Change the Weather History Date:

Friday, November 25, 2011

  Actual Average Record
Temperature  
Mean Temperature 26 °F -  
Max Temperature 28 °F 31 °F 44 °F (2004)
Min Temperature 24 °F 25 °F 19 °F (2000)
Degree Days  
Heating Degree Days 39    
Moisture  
Dew Point 24 °F    
Average Humidity 95    
Maximum Humidity 100    
Minimum Humidity 85    
Precipitation  
Precipitation 0.14 in - - ()
Sea Level Pressure  
Sea Level Pressure 30.12 in    
Wind  
Wind Speed 12 mph (West)    
Max Wind Speed 17 mph    
Max Gust Speed 41 mph    
Visibility 5 miles    
Events Rain , Snow    
Averages and records for this station are not official NWS values.
T = Trace of Precipitation, MM = Missing Value Source: NWS Daily Summary

Daily Weather History Graph

Daily Weather History Graph

Search for Another Location

Airport:

Trip Planner

Search our weather history database for the weather conditions in past years. The results will help you decide how hot, cold, wet, or windy it might be!

Date:

Astronomy

Nov. 25, 2011 Rise Set
Actual Time 7:23 AM PST 4:20 PM PST
Civil Twilight 6:49 AM PST 4:55 PM PST
Nautical Twilight 6:11 AM PST 5:33 PM PST
Astronomical Twilight 5:34 AM PST 6:09 PM PST
Moon 8:01 AM PST (11/25) 4:49 PM PST (11/25)
Length of Visible Light 10h 06m
Length of Day
8h 57m
New Moon, 0% of the Moon is Illuminated
Nov 25
New Moon
Dec 2
First Quarter
Dec 10
Full
Dec 17
Last Quarter
Dec 24
New

Hourly Weather History & Observations

Time (PST) Temp. Windchill Dew Point Humidity Pressure Visibility Wind Dir Wind Speed Gust Speed Precip Events Conditions
12:42 AM 26.6 °F 14.3 °F 24.8 °F 93% 29.74 in 2.0 mi West 16.1 mph 31.1 mph 0.02 in Snow Light Snow
12:47 AM 26.6 °F 13.8 °F 24.8 °F 93% 29.74 in 1.2 mi West 17.3 mph 31.1 mph 0.02 in Snow Light Snow
12:56 AM 26.1 °F 14.0 °F 25.0 °F 96% 29.83 in 1.0 mi West 15.0 mph 33.4 mph 0.03 in Snow Light Snow
1:06 AM 26.6 °F 15.2 °F 24.8 °F 93% 29.75 in 2.0 mi West 13.8 mph 33.4 mph 0.00 in Snow Light Snow
1:22 AM 24.8 °F 12.4 °F 23.0 °F 93% 29.77 in 2.0 mi West 15.0 mph 41.4 mph 0.00 in   Overcast
1:32 AM 24.8 °F 12.4 °F 24.8 °F 100% 29.77 in 3.0 mi WSW 15.0 mph 36.8 mph 0.00 in   Overcast
2:05 AM 24.8 °F 12.9 °F 23.0 °F 93% 29.81 in 4.0 mi West 13.8 mph 33.4 mph 0.00 in   Overcast
2:39 AM 24.8 °F 11.5 °F 24.8 °F 100% 29.82 in 1.8 mi West 17.3 mph 38.0 mph 0.01 in Snow Light Snow
3:25 AM 24.8 °F 11.9 °F 24.8 °F 100% 29.86 in 2.5 mi West 16.1 mph 36.8 mph 0.01 in   Overcast
3:31 AM 24.8 °F 11.5 °F 24.8 °F 100% 29.87 in 3.0 mi WNW 17.3 mph 36.8 mph 0.01 in Rain Light Freezing Rain
3:42 AM 24.8 °F 11.9 °F 23.0 °F 93% 29.89 in 2.0 mi West 16.1 mph 29.9 mph 0.02 in Snow Light Snow
3:56 AM 25.0 °F 13.6 °F 24.1 °F 96% 30.01 in 2.5 mi West 12.7 mph 28.8 mph 0.04 in Snow Light Snow
4:09 AM 24.8 °F 12.4 °F 24.8 °F 100% 29.91 in 3.0 mi West 15.0 mph 29.9 mph 0.00 in Snow Light Snow
4:36 AM 24.8 °F 13.4 °F 21.2 °F 86% 29.94 in 5.0 mi West 12.7 mph 31.1 mph 0.01 in   Overcast
4:58 AM 24.8 °F 13.4 °F 23.0 °F 93% 29.96 in 7.0 mi West 12.7 mph 29.9 mph 0.00 in   Overcast
5:56 AM 25.0 °F 13.1 °F 23.0 °F 92% 30.12 in 6.0 mi West 13.8 mph 24.2 mph 0.00 in Snow Light Snow
6:05 AM 24.8 °F 15.3 °F 23.0 °F 93% 30.02 in 4.0 mi West 9.2 mph 24.2 mph 0.00 in Snow Light Snow
6:13 AM 24.8 °F 14.0 °F 24.8 °F 100% 30.03 in 1.8 mi West 11.5 mph 23.0 mph 0.00 in Snow Light Snow
6:24 AM 24.8 °F 16.1 °F 24.8 °F 100% 30.03 in 1.2 mi West 8.1 mph 27.6 mph 0.01 in Snow Light Snow
6:40 AM 24.8 °F 16.1 °F 24.8 °F 100% 30.04 in 1.0 mi West 8.1 mph 19.6 mph 0.01 in Snow Light Snow
6:48 AM 24.8 °F 17.9 °F 24.8 °F 100% 30.05 in 0.8 mi Variable 5.8 mph 17.3 mph 0.01 in Snow Light Snow
6:56 AM 25.0 °F 16.3 °F 24.1 °F 96% 30.16 in 1.0 mi West 8.1 mph 21.9 mph 0.02 in Snow Light Snow
7:11 AM 24.8 °F 14.6 °F 24.8 °F 100% 30.07 in 0.8 mi West 10.4 mph 21.9 mph 0.02 in Snow Light Snow
7:19 AM 24.8 °F 13.4 °F 24.8 °F 100% 30.08 in 1.2 mi West 12.7 mph 20.7 mph 0.02 in Snow Light Snow
7:41 AM 24.8 °F 13.4 °F 24.8 °F 100% 30.10 in 1.0 mi West 12.7 mph 19.6 mph 0.05 in Snow Light Snow
8:03 AM 24.8 °F 14.6 °F 24.8 °F 100% 30.13 in 1.5 mi West 10.4 mph 17.3 mph 0.01 in Snow Light Snow
8:10 AM 24.8 °F 16.9 °F 24.8 °F 100% 30.13 in 0.8 mi Variable 6.9 mph 17.3 mph 0.01 in Snow Light Snow
8:29 AM 24.8 °F 16.1 °F 24.8 °F 100% 30.15 in 1.5 mi West 8.1 mph 23.0 mph 0.03 in Snow Light Snow
8:38 AM 24.8 °F 16.1 °F 24.8 °F 100% 30.16 in 1.8 mi West 8.1 mph 17.3 mph 0.04 in Snow Light Snow
8:46 AM 24.8 °F 16.1 °F 24.8 °F 100% 30.17 in 2.0 mi West 8.1 mph - 0.04 in Snow Light Snow
8:56 AM 25.0 °F 16.3 °F 25.0 °F 100% 30.28 in 2.0 mi West 8.1 mph 20.7 mph 0.05 in Snow Light Snow
9:06 AM 24.8 °F 15.3 °F 24.8 °F 100% 30.19 in 1.8 mi West 9.2 mph 21.9 mph 0.00 in Snow Light Snow
9:13 AM 24.8 °F 16.1 °F 24.8 °F 100% 30.19 in 3.0 mi WSW 8.1 mph - 0.01 in Snow Light Snow
10:05 AM 24.8 °F 15.3 °F 24.8 °F 100% 30.22 in 10.0 mi West 9.2 mph 19.6 mph N/A   Overcast
10:56 AM 26.1 °F 16.8 °F 24.1 °F 92% 30.34 in 10.0 mi West 9.2 mph 18.4 mph N/A   Overcast
11:32 AM 26.6 °F 17.5 °F 24.8 °F 93% 30.26 in 10.0 mi West 9.2 mph 20.7 mph N/A   Overcast
11:41 AM 26.6 °F 17.5 °F 24.8 °F 93% 30.26 in 10.0 mi WSW 9.2 mph - N/A   Overcast
11:56 AM 26.1 °F 16.8 °F 23.0 °F 88% 30.38 in 10.0 mi West 9.2 mph - N/A   Overcast
12:23 PM 26.6 °F 20.0 °F 23.0 °F 86% 30.28 in 10.0 mi Variable 5.8 mph - N/A   Scattered Clouds
12:56 PM 26.1 °F 18.4 °F 23.0 °F 88% 30.40 in 10.0 mi West 6.9 mph - N/A   Partly Cloudy
1:56 PM 27.0 °F - 24.1 °F 89% 30.41 in 10.0 mi Calm Calm - N/A   Clear
2:56 PM 28.0 °F - 24.1 °F 85% 30.42 in 10.0 mi Calm Calm - N/A   Clear
4:56 PM 24.1 °F 18.2 °F 21.9 °F 91% 30.43 in 10.0 mi Variable 4.6 mph - N/A   Clear
5:56 PM 25.0 °F 18.1 °F 23.0 °F 92% 30.43 in 10.0 mi Variable 5.8 mph - N/A   Overcast
6:56 PM 25.0 °F 16.3 °F 21.9 °F 88% 30.45 in 10.0 mi ENE 8.1 mph - N/A   Overcast
7:56 PM 25.0 °F 15.5 °F 21.9 °F 88% 30.46 in 10.0 mi East 9.2 mph - N/A   Overcast
8:56 PM 25.0 °F 18.1 °F 21.9 °F 88% 30.47 in 10.0 mi Variable 5.8 mph - N/A   Overcast
9:56 PM 25.0 °F 19.3 °F 21.9 °F 88% 30.45 in 10.0 mi Variable 4.6 mph - N/A   Overcast
10:56 PM 25.0 °F 17.1 °F 21.9 °F 88% 30.46 in 10.0 mi Variable 6.9 mph - N/A   Overcast